Tracking 19212 objects as of 17-Jul-2018
HD Live streaming from Space Station
objects crossing your sky now

FENGYUN 1C DEB

Track FENGYUN 1C DEB now!
10-day predictions


NORAD ID: 38518
Int'l Code: 1999-025ETD
Perigee: 750.3 km
Apogee: 795.2 km
Inclination: 99.2 °
Period: 100.1 minutes
Semi major axis: 7143 km
RCS: 0.0015 m2 (small)
Launch date: May 10, 1999
Source: People's Republic of China (PRC)
Launch site: Taiyaun Space Center, China (TSC)

Note: This is SATELLITE DEBRIS
aabbcc
Your satellite tracking list
Your tracking list is empty




NASA's NSSDC Master Catalog

Two Line Element Set (TLE):
1 38518U 99025ETD 18195.91441238  .00000851  00000-0  29713-3 0  9995
2 38518  99.1821  98.7794 0031437 183.2543 176.8442 14.37845004443352
Source of the keplerian elements: AFSPC